Location: *
(58.7167°N, 26.1833°E)
Time: 17:25:46
(UTC+00:00)

Cosmos 2237 Rocket - Pass Details

Date: 25 August 2019
Orbit: 834 x 851 km, 71.0° (Epoch: 22 September)

Event Time Altitude Azimuth Distance (km) Brightness Sun altitude
Rises 20:24:21 0° 314° (NW) 3,411 6.8 -17.0°
Reaches altitude 10° 20:27:01 10° 323° (NW) 2,477 5.9 -17.1°
Maximum altitude 20:32:14 36° 29° (NNE) 1,334 3.5 -17.5°
Drops below altitude 10° 20:37:27 10° 96° (E) 2,480 4.3 -17.8°
Enters shadow 20:37:45 - 97° (E) 2,580 4.4 -17.8°
